TimeEDT,TemperatureF,Dew PointF,Humidity,Sea Level PressureIn,VisibilityMPH,Wind Direction,Wind SpeedMPH,Gust SpeedMPH,PrecipitationIn,Events,Conditions,WindDirDegrees,DateUTC
12:15 AM,62.6,59.0,88,30.04,10.0,South,4.6,-,N/A,,Clear,170,2012-10-15 04:15:00
12:35 AM,60.8,59.0,94,30.03,10.0,SSW,3.5,-,N/A,,Clear,200,2012-10-15 04:35:00
1:15 AM,59.0,55.4,88,30.02,10.0,South,3.5,-,N/A,,Clear,180,2012-10-15 05:15:00
1:35 AM,59.0,55.4,88,30.02,10.0,Calm,Calm,-,N/A,,Clear,0,2012-10-15 05:35:00
1:55 AM,59.0,55.4,88,30.01,10.0,Calm,Calm,-,N/A,,Clear,0,2012-10-15 05:55:00
2:15 AM,57.2,53.6,88,30.01,10.0,Calm,Calm,-,N/A,,Clear,0,2012-10-15 06:15:00
2:35 AM,57.2,53.6,88,30.00,10.0,Calm,Calm,-,N/A,,Clear,0,2012-10-15 06:35:00
2:55 AM,55.4,53.6,94,29.99,10.0,Calm,Calm,-,N/A,,Clear,0,2012-10-15 06:55:00
3:15 AM,55.4,53.6,94,29.98,10.0,Calm,Calm,-,N/A,,Clear,0,2012-10-15 07:15:00
3:35 AM,55.4,53.6,94,29.98,10.0,Calm,Calm,-,N/A,,Clear,0,2012-10-15 07:35:00
3:55 AM,55.4,53.6,94,29.97,10.0,Calm,Calm,-,N/A,,Scattered Clouds,0,2012-10-15 07:55:00
4:15 AM,55.4,51.8,88,29.96,10.0,SSE,3.5,-,N/A,,Clear,160,2012-10-15 08:15:00
4:35 AM,53.6,51.8,94,29.96,10.0,SSE,4.6,-,N/A,,Clear,160,2012-10-15 08:35:00
4:55 AM,55.4,53.6,94,29.96,10.0,Calm,Calm,-,N/A,,Scattered Clouds,0,2012-10-15 08:55:00
5:15 AM,55.4,53.6,94,29.95,10.0,Calm,Calm,-,N/A,,Clear,0,2012-10-15 09:15:00
5:35 AM,55.4,53.6,94,29.95,10.0,Calm,Calm,-,N/A,,Clear,0,2012-10-15 09:35:00
5:55 AM,55.4,53.6,94,29.94,10.0,SSE,3.5,-,N/A,,Clear,160,2012-10-15 09:55:00
6:15 AM,55.4,53.6,94,29.94,10.0,Calm,Calm,-,N/A,,Clear,0,2012-10-15 10:15:00
6:35 AM,55.4,53.6,94,29.94,10.0,South,3.5,-,N/A,,Clear,170,2012-10-15 10:35:00
6:55 AM,57.2,53.6,88,29.93,10.0,SSE,3.5,-,N/A,,Clear,160,2012-10-15 10:55:00
7:15 AM,57.2,53.6,88,29.93,10.0,South,3.5,-,N/A,,Clear,170,2012-10-15 11:15:00
7:35 AM,57.2,53.6,88,29.93,10.0,Calm,Calm,-,N/A,,Clear,0,2012-10-15 11:35:00
8:35 AM,60.8,59.0,94,29.93,10.0,South,4.6,-,N/A,,Clear,190,2012-10-15 12:35:00
8:55 AM,64.4,60.8,88,29.93,10.0,South,3.5,-,N/A,,Clear,180,2012-10-15 12:55:00
9:35 AM,64.4,60.8,88,29.93,10.0,South,4.6,-,N/A,,Scattered Clouds,170,2012-10-15 13:35:00
9:55 AM,64.4,60.8,88,29.93,10.0,Calm,Calm,-,N/A,,Overcast,0,2012-10-15 13:55:00
10:15 AM,64.4,60.8,88,29.93,10.0,South,3.5,-,N/A,,Mostly Cloudy,180,2012-10-15 14:15:00
10:55 AM,69.8,62.6,78,29.91,10.0,Calm,Calm,-,N/A,,Mostly Cloudy,0,2012-10-15 14:55:00
11:15 AM,69.8,62.6,78,29.91,10.0,Calm,Calm,-,N/A,,Mostly Cloudy,0,2012-10-15 15:15:00
11:35 AM,69.8,62.6,78,29.91,10.0,Calm,Calm,-,N/A,,Light Drizzle,0,2012-10-15 15:35:00
11:55 AM,66.2,62.6,88,29.91,7.0,Calm,Calm,-,N/A,Rain,Rain,0,2012-10-15 15:55:00
12:35 PM,66.2,62.6,88,29.89,10.0,Calm,Calm,-,N/A,,Mostly Cloudy,0,2012-10-15 16:35:00
12:55 PM,69.8,64.4,83,29.86,10.0,Calm,Calm,-,N/A,,Mostly Cloudy,0,2012-10-15 16:55:00
1:15 PM,69.8,64.4,83,29.86,10.0,Calm,Calm,-,N/A,,Overcast,0,2012-10-15 17:15:00
1:35 PM,69.8,64.4,83,29.84,10.0,Calm,Calm,-,N/A,,Mostly Cloudy,0,2012-10-15 17:35:00
2:15 PM,69.8,62.6,78,29.79,10.0,Calm,Calm,-,N/A,,Mostly Cloudy,0,2012-10-15 18:15:00
2:35 PM,71.6,64.4,78,29.76,10.0,SSE,6.9,-,N/A,,Scattered Clouds,160,2012-10-15 18:35:00
2:55 PM,71.6,62.6,73,29.75,10.0,SSW,4.6,-,N/A,,Scattered Clouds,200,2012-10-15 18:55:00
3:15 PM,71.6,62.6,73,29.75,10.0,Calm,Calm,-,N/A,,Scattered Clouds,0,2012-10-15 19:15:00
3:35 PM,71.6,64.4,78,29.76,10.0,Calm,Calm,-,N/A,,Clear,0,2012-10-15 19:35:00
3:55 PM,71.6,62.6,73,29.74,10.0,Calm,Calm,-,N/A,,Scattered Clouds,0,2012-10-15 19:55:00
4:15 PM,71.6,62.6,73,29.73,10.0,South,3.5,-,N/A,,Clear,170,2012-10-15 20:15:00
4:35 PM,69.8,62.6,78,29.73,10.0,Calm,Calm,-,N/A,,Clear,0,2012-10-15 20:35:00
4:55 PM,69.8,64.4,83,29.73,10.0,Calm,Calm,-,N/A,Rain,Light Rain,0,2012-10-15 20:55:00
5:15 PM,69.8,64.4,83,29.71,7.0,Calm,Calm,-,N/A,Rain,Rain,0,2012-10-15 21:15:00
5:35 PM,69.8,66.2,88,29.71,7.0,WNW,4.6,-,0.02,,Mostly Cloudy,290,2012-10-15 21:35:00
5:55 PM,64.4,60.8,88,29.72,0.5,South,8.1,-,0.83,Rain,Light Rain,180,2012-10-15 21:55:00
6:15 PM,64.4,60.8,88,29.73,10.0,Calm,Calm,-,0.01,,Mostly Cloudy,0,2012-10-15 22:15:00
6:35 PM,64.4,60.8,88,29.73,5.0,Calm,Calm,-,0.11,Rain,Light Rain,0,2012-10-15 22:35:00
7:15 PM,64.4,60.8,88,29.72,10.0,Calm,Calm,-,N/A,,Mostly Cloudy,0,2012-10-15 23:15:00
7:35 PM,64.4,62.6,94,-9999,7.0,Calm,Calm,-,N/A,,Scattered Clouds,0,2012-10-15 23:35:00
7:55 PM,62.6,59.0,88,29.73,2.5,Calm,Calm,-,N/A,,Clear,0,2012-10-15 23:55:00
8:15 PM,60.8,59.0,94,29.75,10.0,Calm,Calm,-,N/A,,Scattered Clouds,0,2012-10-16 00:15:00
8:35 PM,62.6,59.0,88,29.75,10.0,Calm,Calm,-,N/A,,Mostly Cloudy,0,2012-10-16 00:35:00
8:55 PM,60.8,57.2,88,29.74,3.0,Calm,Calm,-,N/A,,Scattered Clouds,0,2012-10-16 00:55:00
9:15 PM,59.0,57.2,94,29.74,1.8,Calm,Calm,-,N/A,,Mist,0,2012-10-16 01:15:00
9:35 PM,59.0,57.2,94,29.76,10.0,Calm,Calm,-,N/A,,Mostly Cloudy,0,2012-10-16 01:35:00
9:55 PM,62.6,59.0,88,29.77,10.0,Calm,Calm,-,N/A,,Mostly Cloudy,0,2012-10-16 01:55:00
10:15 PM,59.0,55.4,88,29.78,10.0,Calm,Calm,-,N/A,Rain,Light Rain,0,2012-10-16 02:15:00
10:35 PM,59.0,55.4,88,29.78,10.0,Calm,Calm,-,N/A,,Overcast,0,2012-10-16 02:35:00
10:55 PM,59.0,55.4,88,29.79,10.0,Calm,Calm,-,N/A,,Overcast,0,2012-10-16 02:55:00
11:15 PM,59.0,55.4,88,29.79,10.0,Calm,Calm,-,N/A,,Overcast,0,2012-10-16 03:15:00
11:35 PM,59.0,53.6,82,29.79,10.0,NW,3.5,-,0.01,,Scattered Clouds,320,2012-10-16 03:35:00
11:55 PM,57.2,53.6,88,29.80,10.0,NW,3.5,-,0.01,,Clear,320,2012-10-16 03:55:00